Regional Weather Roundup
Issued by NWS Newport/Morehead, NC

Home | Current Version | Previous Version | Text Only | Print | Product List | Glossary On
Versions: 1 2 3 4 5 6 7 8 9 10 11 12 13 14 15 16 17 18 19 20 21 22 23 24 25 26 27 28 29 30 31 32 33 34 35 36 37 38 39 40 41 42 43 44 45 46 47 48 49 50
003
ASUS42 KMHX 272325
RWRMHX
WEATHER ROUNDUP FOR EASTERN NORTH CAROLINA
NATIONAL WEATHER SERVICE NEWPORT/MOREHEAD CITY NC
700 PM EDT THU JUL 27 2017

NOTE: "FAIR" INDICATES FEW OR NO CLOUDS BELOW 12,000 FEET
WITH NO SIGNIFICANT WEATHER AND/OR OBSTRUCTIONS TO VISIBILITY

NCZ015>017-031-032-045>047-102-103-280000-
NORTH COAST

CITY           SKY/WX    TMP DP  RH WIND       PRES   REMARKS
EDENTON        FAIR      85  74  69 S8        29.93S
ELIZABETH CITY FAIR      84  73  69 S9        29.93S
KITTY HAWK     FAIR      82  68  63 CALM      29.93F
MANTEO         FAIR      82  69  64 SW16      29.95S

$$

NCZ045>047-081-094-103-104-280000-
CENTRAL COAST

CITY           SKY/WX    TMP DP  RH WIND       PRES   REMARKS
FRISCO         FAIR      82  71  69 SW9       29.97S

$$

NCZ095-097-098-100-101-280000-
SOUTHERN COAST

CITY           SKY/WX    TMP DP  RH WIND       PRES   REMARKS
BEAUFORT       FAIR      83  72  69 S13       29.96F
CEDAR ISLAND   NOT AVBL
JACKSONVILLE   FAIR      81  73  76 S6        29.95F
PINEY ISLAND   FAIR     N/A N/A N/A S10       29.96S
WILMINGTON     FAIR      82  73  74 S9        29.96F


$$

NCZ011>013-027>030-043-044-078>080-089-090>093-098-280000-
COASTAL PLAIN

CITY           SKY/WX    TMP DP  RH WIND       PRES   REMARKS
AHOSKIE          N/A     80  75  84 CALM      29.92S
CLINTON        FAIR      86  74  66 CALM      29.93F
ELIZABETHTOWN  NOT AVBL
GOLDSBORO      FAIR      88  71  55 S5        29.91F
GREENVILLE     FAIR      86  68  54 S13G18    29.95S
HAVELOCK       FAIR      83  68  60 S13       29.97S
KENANSVILLE    FAIR      84  70  61 SE6       29.94S
KINSTON        FAIR      86  66  51 S13       29.94S
NEW BERN       FAIR      83  68  60 S9        29.96F
RICHLANDS      FAIR      82  71  69 S6        29.96S
ROCKY MOUNT    FAIR      83  76  79 CALM      29.93S
WASHINGTON     FAIR      84  69  61 S6        29.94S
WHITEVILLE     FAIR      84  70  62 SE3       29.94F

$$

AMZ130-135-150-152-154-156-158-170-250-252-270-ANZ085-086-088-633-658-670-280000-
MARINE OBSERVATIONS

STATION/POSITION TIME  TEMP    WIND        PRES    WAVE   SWELL
                       AIR SEA DIR/SP/G            HT/PER HT/PER
                 (UTC) (F)     (DEG/KT/KT) (MB)    (FT/S) (FT/S)
CHESAPEAKE LIGHT NOT AVBL
64 E VA BEACH    2250   79 78  190/ 14/ 16 1014.2    3/ 7   2/ 7
DUCK             2300   83 73  190/ 14/ 19 1013.0
2 E DUCK         2300      74                N/A     3/ 7
OREGON INLET     2300   81 81  190/ 15/ 17 1014.1
13E OREGON INLT  2248      78                N/A     3/ 7   2/ 7
HATTERAS CG      2300   82 80  190/  5/  8 1014.7
DIAMOND BUOY     2250   82 85  190/ 10/ 12 1015.0    3/ 8   2/ 8
CAPE LOOKOUT     2300   82     180/ 11/ 13 1014.6
BEAUFORT LAB     2300   82 82  190/ 12/ 14 1014.1
30 SE NEW RVR IN 2308   82 85  180/ 10/ 12 1015.1
30 SE NEW RVR IN 2313      84                N/A     2/ 8
27 SE WRIGHTSVLE 2308   82 83  160/ 10/ 14 1014.8
5 SE WRIGHTSVLE  2308   82 82  170/ 12/ 17 1014.3
225 S CAPE HAT   2250   83 83  290/  6/  6 1015.1    3/ 7   3/ 7
41 SE CHARLESTON 2310   81 83  160/ 10/ 12 1014.0

$$




USA.gov is the U.S. government's official web portal to all federal, state and local government web resources and services.